Overview Statistics Trail Chart Weather Telemetry Raw packets
 

This is the latest recevied weather packets stored in our database for station/object IZ2XCK-13. If no packets are shown the sender has not sent any weather packets the latest 10 day(s).

<< 1 2 3 4 5 >>
Time Temp. Humidity Pressure Rain* Wind** Luminosity Snow
1788537242 31.11° C 39% 1020.7 hPa - - - -
1788536042 32.22° C 37% 1020.7 hPa - - - -
1788534842 31.67° C 38% 1020.8 hPa - - - -
1788533641 31.67° C 38% 1020.9 hPa - - - -
1788532441 32.78° C 37% 1020.9 hPa - - - -
1788531241 32.78° C 37% 1021.2 hPa - - - -
1788530040 33.33° C 37% 1021.3 hPa - - - -
1788528840 33.33° C 38% 1021.5 hPa - - - -
1788527640 32.78° C 37% 1021.5 hPa - - - -
1788526439 32.78° C 37% 1021.8 hPa - - - -
1788525239 32.22° C 38% 1021.9 hPa - - - -
1788524039 31.11° C 39% 1021.9 hPa - - - -
1788522838 30° C 40% 1022.1 hPa - - - -
1788521638 29.44° C 41% 1022.3 hPa - - - -
1788520438 27.78° C 42% 1022.5 hPa - - - -
1788519237 27.22° C 41% 1022.5 hPa - - - -
1788518037 26.67° C 44% 1022.7 hPa - - - -
1788516837 26.11° C 47% 1022.8 hPa - - - -
1788515637 25.56° C 49% 1023 hPa - - - -
1788514436 25° C 50% 1023 hPa - - - -
1788513236 24.44° C 51% 1023 hPa - - - -
1788512036 23.89° C 51% 1023 hPa - - - -
1788510835 23.89° C 52% 1023 hPa - - - -
1788509635 23.33° C 50% 1023 hPa - - - -
1788508435 22.78° C 53% 1023.1 hPa - - - -

* Rain since midnight (hover to see other rain measurements)
** Current wind speed in m/s (hover to see current wind gust speed)